Location: Pinawa
(50.1500°N, 95.8830°W)
Time: 11:01:09
(UTC-06:00)

Daily predictions for brighter satellites

Satellite Brightness Start Highest point End
(mag) Time Altitude Azimuth Time Altitude Azimuth Time Altitude Azimuth
Cosmos 1151 Rocket 3.9 17:26:09 10° N 17:29:48 26° ENE 17:33:26 10° SE
Orbus 7S? 4.1 17:30:45 10° NW 17:33:34 34° NNE 17:38:27 10° E
BREEZE M DEB (TANK) 2.2 17:29:02 10° W 17:33:48 66° SSW 17:36:04 10° ESE
Cosmos 1076 Rocket 3.5 17:30:02 10° S 17:34:17 82° E 17:38:35 10° NNE
Lacrosse 5 rocket 1.2 17:30:52 10° NW 17:34:31 55° NNE 17:38:19 10° ESE
SJ-12 3.9 17:31:56 10° SSE 17:36:05 85° ENE 17:40:15 10° NNW
In-Cosmos 22 4.2 17:31:01 10° S 17:36:24 85° E 17:41:58 10° NNE
CZ-2C R/B 3.9 17:31:57 10° NNE 17:36:46 89° W 17:41:33 10° SSW
Cosmos 1174 4.5 17:34:58 10° WSW 17:37:46 34° NW 17:40:50 10° NNE
Cosmos 2322 3.8 17:33:00 10° SSW 17:38:42 88° ESE 17:44:27 10° NNE
Cosmos 1844 Rocket 2.8 17:33:19 10° NNW 17:39:02 87° WSW 17:44:42 10° SSE
COSMOS 2455 4.2 17:34:31 10° W 17:39:49 31° NW 17:45:08 10° NNE
Cosmos 1634 Rocket 4.1 17:36:42 10° N 17:42:45 51° ENE 17:48:44 10° SSE
MOS 1 4.3 17:37:42 10° SSE 17:43:22 85° ENE 17:49:05 10° NNW
Cosmos 2221 4.2 17:39:50 10° NNW 17:43:48 38° W 17:47:44 10° SSW
Cosmos 1500 Rocket 4.4 17:40:13 10° SSE 17:43:59 30° E 17:47:49 10° NNE
SL-16 R/B 3.4 17:38:58 10° WSW 17:44:15 39° NW 17:49:35 10° NNE
Cosmos 389 Rocket 3.0 17:41:46 10° NNW 17:45:22 64° W 17:48:53 10° S
CZ-4 R/B 1.6 17:42:54 10° S 17:46:46 72° WSW 17:50:41 10° NNW
Cosmos 1763 Rocket 3.6 17:44:00 10° S 17:49:05 56° ESE 17:54:08 10° NNE
AQUARIUS 4.3 17:45:03 10° SSE 17:49:33 83° WSW 17:54:06 10° NNW
Cosmos 372 Rocket 4.2 17:46:16 10° NNW 17:51:09 44° ENE 17:56:01 10° SE
CZ-4C R/B 3.8 17:46:42 10° WNW 17:51:43 26° N 17:57:19 10° NE
Cosmos 332 Rocket 4.2 17:48:31 10° S 17:53:03 42° ESE 17:57:39 10° NE
Cosmos 2333 4.3 17:47:53 10° S 17:53:21 56° ESE 17:58:50 10° NE
Meteor 2-2 Rocket 4.2 17:49:30 10° N 17:55:10 79° ENE 18:00:49 10° SSE
Lacrosse 4 Rocket 3.1 17:56:24 10° N 17:58:55 15° NNE 18:00:22 13° ENE
Cosmos 2360 Rocket 2.6 17:53:27 10° SW 17:59:01 62° WNW 18:04:38 10° NNE
MONITOR-E 4.2 17:57:06 10° SSE 18:00:13 62° ENE 18:03:22 10° N
Cosmos 1980 Rocket 4.3 17:57:03 10° WNW 18:00:43 17° NNW 18:04:24 10° N
Cosmos 2084 4.3 18:01:59 10° S 18:05:15 26° ESE 18:07:19 17° ENE
Meteor 2-10 4.3 18:01:25 10° N 18:06:16 44° ENE 18:11:11 10° SE
Cosmos 540 Rocket 4.3 18:02:23 10° SSE 18:06:52 31° ESE 18:10:58 12° NE
ATLAS 3B R/B 4.0 18:01:44 10° WNW 18:08:05 30° NNW 18:13:57 11° NE
Cosmos 44 4.4 18:06:23 10° S 18:10:46 28° ESE 18:13:37 17° ENE
SJ-6B 3.7 18:07:46 10° SE 18:11:20 30° ENE 18:14:57 10° N
Meteor 1-21 Rocket 4.5 18:06:08 10° SSW 18:12:03 80° WNW 18:17:56 10° N
ALOS 3.4 18:08:40 10° ESE 18:12:15 22° ENE 18:15:52 10° N
Cosmos 1766 Rocket 4.3 18:07:59 10° SSW 18:12:22 56° WNW 18:16:45 10° N
USA 215 3.3 18:06:04 10° ESE 18:12:39 85° SSW 18:19:14 10° WNW
ATLAS 5 CENTAUR R/B 3.7 18:10:38 10° NW 18:14:43 21° N 18:18:04 13° NE
Cosmos 2333 Rocket 2.5 18:10:47 10° S 18:16:07 45° ESE 18:20:56 13° NE
COSMO-SKYMED 1 2.8 18:13:57 10° NNE 18:18:11 47° E 18:22:22 10° S
METEOR-M 4.3 18:14:10 10° SE 18:19:16 47° ENE 18:24:24 10° N
Cosmos 1707 Rocket 4.3 18:16:06 10° N 18:19:54 29° ENE 18:23:41 10° SE
Resurs 01 Rocket 2.7 18:17:34 13° ESE 18:20:30 24° ENE 18:24:03 10° N
Cosmos 371 Rocket 3.3 18:18:10 10° S 18:22:52 58° ESE 18:27:14 12° NNE
YAOGAN 1 3.9 18:19:24 10° S 18:23:32 44° W 18:27:43 10° NNW
Thor Agena Rocket 3.6 18:20:00 10° NNE 18:25:18 83° WNW 18:30:30 10° SSW
Cosmos 2219 Rocket 2.2 18:19:48 10° SSW 18:25:23 66° ESE 18:30:32 12° NE
Cosmos 1125 Rocket 3.7 18:20:48 10° NNW 18:26:02 77° WSW 18:31:13 10° SSE
Cosmos 2058 3.4 18:22:34 10° SSE 18:26:22 38° E 18:29:30 14° NNE
USA 116 4.2 18:23:43 10° N 18:26:56 47° WNW 18:29:57 10° SW
NOSS 3-2 (C) 4.4 18:21:26 10° WSW 18:27:29 44° NNW 18:33:31 13° NE
Cosmos 2228 Rocket 4.3 18:23:54 10° NNW 18:28:07 44° W 18:32:19 10° SSW
Cosmos 2278 Rocket 2.3 18:22:28 10° NNW 18:28:11 81° WSW 18:33:51 10° SSE
Cosmos 2322 Rocket 4.1 18:23:45 10° W 18:28:11 23° NW 18:32:38 10° NNE
Meteor 1-27 4.2 18:25:49 10° N 18:31:39 73° ENE 18:37:28 10° SSE
FREGAT/IRIS 3.1 18:32:17 34° E 18:32:45 36° ENE 18:35:37 10° N
Cosmos 1455 3.5 18:30:11 10° NNE 18:32:13 22° NE 18:32:13 22° NE
Cosmos 2279 Rocket 3.9 18:27:42 10° N 18:33:57 72° ENE 18:40:09 10° SSE
Cosmos 1943 Rocket 4.0 18:31:46 10° N 18:34:07 13° NNE 18:34:43 12° NNE
Cosmos 1626 4.3 18:33:27 10° SE 18:34:03 13° SE 18:34:03 13° SE
Cosmos 1674 4.2 18:35:51 10° SW 18:39:26 38° WNW 18:43:05 10° N
Cosmos 1340 Rocket 3.2 18:36:19 10° SSE 18:39:58 38° E 18:40:58 32° ENE
Spot 2 Rocket 3.9 18:36:05 10° SE 18:40:42 38° ENE 18:45:20 10° N
NOAA 12 4.0 18:37:27 10° SSE 18:42:40 76° ENE 18:47:57 10° NNW
Cosmos 44 Rocket 3.3 18:37:44 10° SSW 18:42:49 69° SE 18:45:41 26° NE
Molniya-1 4.5 18:40:32 10° SW 18:43:47 85° NW 18:47:14 23° NE
Cosmos 841 Rocket 3.8 18:38:36 10° SSW 18:43:51 67° WNW 18:49:08 10° NNE
SL-14 R/B 3.1 18:42:11 10° S 18:46:08 80° E 18:49:58 11° NNE
BREEZE-M DEB (TANK) 3.0 18:44:52 10° SSW 18:46:31 21° SSE 18:46:31 21° SSE
Cosmos 1726 3.1 18:44:46 10° NNW 18:48:27 50° W 18:52:06 10° S
Cosmos 1484 Rocket 4.3 18:46:46 10° SSW 18:50:28 39° W 18:54:16 10° NNW
Lacrosse 5 2.6 18:45:52 10° W 18:50:41 41° N 18:52:57 26° NE
Cosmos 1300 3.7 18:48:52 10° NNW 18:52:35 47° W 18:56:16 10° SSW
CENTAUR R/B 2.9 18:47:34 10° SW 18:53:52 68° NW 18:59:12 19° NE
Cosmos 2180 Rocket 4.4 18:48:06 10° N 18:54:17 83° E 19:00:29 10° S
COSMOS 2428 3.5 18:51:40 10° SW 18:57:13 50° NW 19:02:30 11° NNE
Cosmos 2237 Rocket 2.1 18:51:59 10° SSW 18:57:35 71° ESE 19:01:05 24° NE
Cosmos 2151 3.0 18:53:33 10° SSW 18:57:46 77° W 19:02:00 10° N
Cosmos 2369 Rocket 3.4 18:53:58 10° NNW 18:58:25 24° NE 18:58:25 24° NE
DNEPR-1 R/B 4.2 18:52:02 10° SSW 18:58:42 80° SE 19:01:39 29° NE
Nadezhda 4 Rocket 4.2 18:53:34 10° SSE 18:59:28 46° E 19:05:27 10° NNE
Cosmos 1900 4.2 18:56:23 10° NW 19:01:21 88° NE 19:04:51 20° SE
SL-16 R/B 2.6 18:57:59 10° S 19:03:08 38° ESE 19:03:37 37° E
SKYMED 2 4.1 19:02:01 10° N 19:06:20 59° WNW 19:10:35 10° SSW
Cosmos 304 Rocket 3.9 19:01:48 10° S 19:06:24 48° ESE 19:06:45 47° E
Timation 1 Rocket 4.5 19:00:45 10° NNW 19:06:46 75° WSW 19:12:46 10° SSE
Aureole 2 Rocket 2.6 19:03:37 10° S 19:07:19 63° ESE 19:07:19 63° ESE
Cosmos 2297 3.8 19:02:43 10° NNW 19:08:27 81° WSW 19:14:11 10° SSE
Lacrosse 5 rocket 2.8 19:10:12 10° WNW 19:13:35 32° SW 19:16:06 16° S
Cosmos 1805 Rocket 3.4 19:09:40 10° S 19:14:06 74° E 19:15:35 41° NNE
Meteor 1-28 Rocket 3.7 19:14:51 23° N 19:17:00 56° WNW 19:20:38 10° SSW
Cosmos 1092 Rocket 4.2 19:11:50 10° SSE 19:17:48 46° E 19:20:03 33° NE
Sich 1 3.9 19:31:23 10° S 19:34:13 39° S 19:34:13 39° S
Lacrosse 4 Rocket 2.5 19:34:16 10° NNW 19:36:45 35° NNW 19:36:45 35° NNW
CZ-4C R/B 3.6 19:36:32 10° NW 19:42:15 31° NNE 19:42:41 31° NNE
Cosmos 2360 Rocket 4.4 19:40:30 10° WNW 19:44:13 18° NNW 19:47:54 10° N
Cosmos 2084 4.4 19:40:53 10° WSW 19:43:55 40° WNW 19:43:55 40° WNW
Cosmos 1980 4.3 19:39:51 10° SW 19:45:25 53° NW 19:48:05 30° N
NOSS 0 Rocket 4.5 19:40:00 10° SW 19:46:06 55° NW 19:49:24 27° NNE
Cosmos 540 Rocket 4.4 19:43:22 10° SW 19:48:20 45° WNW 19:50:50 26° N
FENGYUN 3A 4.0 19:43:59 10° S 19:49:17 63° WSW 19:54:40 10° NNW
ALOS 2.8 19:44:46 10° S 19:49:21 56° W 19:53:59 10° NNW
Cosmos 44 3.7 19:46:38 10° SW 19:51:46 60° NW 19:52:05 59° NNW
Resurs 01 Rocket 2.5 19:55:07 33° SSW 19:56:44 48° W 20:01:04 10° NNW
Cosmos 2333 Rocket 3.4 19:55:14 10° WSW 20:00:30 39° NW 20:02:58 26° N
ATLAS 3B R/B 3.8 19:54:49 10° NW 20:00:57 29° NNE 20:01:12 29° NNE
ATLAS 5 CENTAUR R/B 3.4 19:55:49 10° NW 19:59:37 31° N 19:59:37 31° N
Cosmos 2219 Rocket 3.8 20:04:56 10° WSW 20:09:48 29° NW 20:12:17 21° N
Cosmos 1943 Rocket 4.0 20:14:22 10° NNW 20:16:15 20° N 20:16:15 20° N
Lacrosse 5 3.7 20:29:41 10° WNW 20:32:10 26° NW 20:32:10 26° NW
Cosmos 2237 Rocket 3.9 20:37:26 10° W 20:42:12 27° NW 20:42:57 26° NNW
Cosmos 2369 Rocket 3.8 20:37:36 10° NNW 20:40:14 29° NNW 20:40:14 29° NNW
CENTAUR R/B 4.0 20:39:55 10° WNW 20:45:52 32° NNW 20:46:24 32° N
SL-16 R/B 3.5 20:41:46 10° SW 20:45:34 36° W 20:45:34 36° W
CZ-4C R/B 4.3 21:25:09 10° NW 21:27:53 27° NW 21:27:53 27° NW
